Dewpoint
-10 -10 -10 -10 -10 -10 -10 -9 -9 -9 -9 -8 -8 -8 -8 -7 -7 -7 -7 -7 -7 -7 -7 -7 -7 -7 -7 -7 -7 -6 -6 -6 -6 -6 -6 -6 -6 -6 -6 -6 -6 -6 -6 -6 -6 -6 -7 -6 -6 -6 -6 -6 -7 -8 -8 -9 -10 -10 -11 -11 -11 -12 -13
-15 -15 -15 -15 -14 -14 -13 -12 -12 -11 -11 -10 -10 -10 -9 -9 -9 -8 -8 -8 -8 -8 -7 -7 -7 -7 -7 -7 -7 -7 -7 -7 -7 -7 -6 -6 -6 -6 -6 -6 -7 -7 -7 -7 -7 -7 -7 -7 -7 -7 -7 -7 -7 -7 -7 -7 -8 -8 -9 -9 -10 -10 -11
-21 -21 -21 -21 -20 -20 -19 -18 -17 -16 -15 -14 -14 -13 -12 -12 -11 -11 -10 -10 -9 -9 -9 -8 -8 -8 -8 -8 -7 -7 -7 -7 -7 -7 -7 -7 -7 -7 -7 -7 -7 -7 -7 -7 -8 -8 -8 -8 -8 -8 -8 -8 -8 -8 -8 -8 -8 -8 -8 -9 -9 -10 -10
-23 -23 -23 -23 -23 -23 -23 -23 -23 -22 -22 -21 -20 -19 -18 -17 -17 -16 -15 -14 -13 -12 -11 -11 -10 -10 -9 -9 -9 -8 -8 -8 -8 -7 -8 -7 -7 -7 -7 -7 -8 -8 -8 -8 -8 -8 -8 -8 -8 -8 -8 -9 -9 -9 -9 -9 -9 -9 -9 -10 -11 -11 -11
-24 -24 -24 -23 -23 -23 -23 -23 -24 -24 -24 -24 -24 -24 -24 -23 -22 -22 -21 -21 -20 -19 -17 -16 -15 -14 -12 -11 -11 -10 -10 -9 -9 -8 -8 -8 -8 -8 -8 -8 -8 -8 -8 -8 -8 -8 -8 -8 -7 -8 -8 -8 -8 -8 -8 -8 -9 -9 -10 -11 -12 -13 -14
-25 -25 -24 -24 -24 -24 -24 -24 -25 -24 -25 -25 -25 -26 -26 -26 -26 -26 -25 -25 -25 -24 -24 -23 -22 -21 -19 -18 -16 -15 -13 -12 -11 -11 -10 -10 -9 -9 -8 -8 -8 -8 -8 -8 -8 -8 -8 -8 -8 -7 -7 -7 -7 -7 -7 -7 -8 -8 -8 -9 -10 -11 -13
-25 -25 -25 -25 -25 -25 -25 -26 -26 -26 -26 -25 -25 -26 -26 -27 -27 -27 -28 -28 -27 -28 -27 -27 -27 -27 -26 -25 -24 -23 -21 -19 -17 -16 -14 -13 -12 -11 -11 -10 -9 -9 -9 -8 -8 -8 -8 -8 -8 -8 -8 -8 -8 -7 -7 -7 -7 -7 -7 -7 -8 -8 -9
-26 -26 -27 -26 -26 -26 -27 -27 -27 -27 -27 -26 -26 -26 -26 -26 -26 -27 -27 -27 -28 -29 -29 -30 -30 -30 -30 -30 -29 -29 -28 -27 -25 -24 -22 -20 -18 -16 -15 -13 -12 -12 -11 -11 -10 -10 -9 -9 -9 -9 -8 -8 -8 -8 -8 -8 -8 -8 -8 -8 -7 -7 -8
-27 -27 -28 -28 -28 -28 -28 -28 -28 -28 -28 -28 -27 -27 -27 -27 -27 -27 -27 -27 -27 -28 -29 -31 -31 -32 -32 -32 -33 -32 -32 -32 -31 -30 -29 -27 -25 -23 -21 -19 -17 -16 -15 -14 -13 -13 -12 -12 -11 -11 -10 -10 -9 -9 -9 -9 -8 -8 -8 -8 -8 -8 -8
-27 -28 -28 -29 -29 -29 -29 -30 -30 -30 -31 -31 -31 -30 -29 -29 -28 -28 -28 -28 -28 -28 -29 -30 -31 -31 -32 -32 -33 -34 -34 -35 -34 -34 -33 -32 -31 -30 -29 -27 -25 -23 -21 -18 -16 -15 -14 -14 -14 -14 -13 -12 -12 -11 -11 -10 -10 -9 -9 -9 -9 -9 -9
-27 -27 -28 -28 -29 -29 -30 -30 -31 -31 -32 -32 -33 -32 -32 -32 -31 -30 -30 -30 -30 -30 -30 -31 -31 -31 -32 -32 -32 -33 -34 -35 -35 -36 -36 -36 -36 -34 -32 -31 -30 -29 -28 -25 -22 -20 -17 -16 -15 -15 -15 -14 -14 -13 -12 -12 -12 -11 -11 -10 -10 -10 -9
-28 -28 -28 -28 -28 -29 -29 -30 -31 -31 -31 -33 -31 -29 -29 -31 -31 -32 -32 -32 -32 -32 -32 -32 -33 -33 -33 -33 -33 -33 -34 -34 -35 -36 -36 -36 -36 -36 -34 -32 -30 -29 -29 -28 -27 -26 -24 -21 -18 -17 -16 -15 -15 -15 -14 -13 -13 -13 -12 -12 -12 -12 -11
-30 -30 -30 -30 -30 -30 -30 -30 -31 -30 -31 -33 -30 -26 -25 -28 -30 -31 -32 -32 -33 -33 -33 -33 -33 -33 -34 -34 -34 -34 -34 -34 -35 -35 -36 -36 -36 -36 -35 -34 -33 -31 -30 -28 -27 -26 -25 -23 -21 -20 -18 -17 -16 -15 -15 -15 -15 -14 -14 -13 -13 -13 -13
-31 -31 -31 -31 -31 -32 -31 -31 -32 -31 -32 -32 -28 -25 -25 -26 -28 -30 -31 -31 -32 -32 -32 -33 -32 -33 -33 -33 -34 -34 -34 -35 -35 -34 -35 -35 -35 -35 -35 -34 -34 -33 -31 -29 -27 -25 -25 -24 -23 -23 -22 -20 -19 -17 -16 -16 -16 -16 -15 -15 -15 -14 -14
-32 -32 -32 -32 -32 -32 -32 -32 -32 -32 -33 -31 -26 -25 -25 -26 -27 -29 -30 -31 -31 -31 -31 -32 -31 -32 -32 -32 -32 -33 -33 -33 -33 -34 -34 -35 -35 -35 -35 -34 -33 -32 -31 -29 -28 -27 -26 -25 -25 -24 -22 -21 -20 -19 -18 -17 -17 -17 -16 -16 -17 -16 -16
-32 -32 -32 -32 -32 -32 -32 -33 -32 -32 -33 -30 -26 -25 -26 -26 -27 -28 -29 -29 -31 -31 -31 -31 -31 -32 -32 -32 -32 -32 -32 -32 -32 -33 -33 -33 -34 -34 -34 -34 -33 -31 -30 -28 -27 -26 -25 -23 -22 -21 -20 -19 -19 -19 -19 -18 -18 -17 -17 -17 -18 -18 -18
-32 -32 -32 -32 -32 -32 -32 -33 -32 -32 -33 -31 -27 -25 -26 -27 -28 -28 -28 -29 -30 -30 -30 -30 -31 -31 -31 -32 -32 -32 -32 -32 -32 -32 -32 -32 -33 -33 -33 -33 -33 -32 -31 -30 -29 -28 -26 -24 -23 -21 -20 -19 -19 -19 -19 -19 -19 -19 -18 -18 -18 -19 -19
-32 -32 -32 -32 -32 -32 -32 -32 -32 -32 -32 -32 -29 -27 -27 -28 -28 -29 -29 -29 -29 -29 -30 -30 -30 -31 -31 -31 -32 -32 -32 -32 -32 -31 -31 -30 -29 -29 -30 -30 -32 -33 -32 -32 -31 -30 -28 -27 -26 -24 -23 -21 -20 -20 -20 -20 -21 -20 -19 -19 -19 -19 -19
-31 -31 -31 -31 -31 -31 -31 -31 -31 -31 -31 -31 -31 -29 -28 -27 -28 -29 -30 -30 -30 -30 -30 -30 -30 -31 -31 -31 -31 -31 -31 -32 -30 -28 -26 -26 -26 -27 -27 -28 -29 -31 -31 -31 -32 -30 -30 -29 -27 -26 -25 -24 -23 -23 -22 -22 -22 -22 -21 -21 -20 -19 -19
-31 -31 -31 -31 -31 -31 -31 -31 -31 -31 -31 -31 -31 -30 -29 -29 -30 -30 -30 -31 -31 -31 -31 -31 -31 -31 -31 -31 -31 -31 -31 -32 -29 -26 -25 -25 -26 -27 -28 -28 -29 -30 -29 -30 -30 -30 -30 -30 -29 -27 -27 -26 -25 -25 -25 -25 -24 -23 -23 -23 -22 -22 -21
-31 -31 -31 -31 -31 -31 -31 -31 -31 -31 -31 -31 -31 -31 -31 -31 -31 -31 -31 -31 -31 -31 -32 -32 -32 -32 -32 -32 -32 -31 -32 -31 -28 -26 -26 -27 -27 -28 -28 -28 -29 -30 -29 -30 -30 -30 -30 -30 -29 -28 -27 -26 -25 -25 -25 -25 -25 -25 -24 -24 -24 -24 -24
-31 -31 -31 -31 -31 -31 -31 -31 -31 -31 -31 -31 -31 -31 -31 -31 -32 -32 -32 -32 -32 -32 -32 -32 -32 -32 -32 -32 -32 -32 -31 -30 -28 -28 -30 -31 -30 -30 -30 -30 -30 -30 -29 -29 -30 -30 -30 -31 -30 -30 -29 -27 -26 -25 -25 -24 -24 -25 -25 -25 -25 -26 -26
-32 -32 -32 -32 -32 -32 -32 -32 -32 -32 -32 -32 -32 -32 -32 -32 -32 -32 -32 -32 -33 -33 -33 -33 -33 -33 -32 -32 -32 -31 -31 -30 -30 -31 -32 -32 -32 -32 -32 -31 -31 -31 -31 -31 -31 -30 -31 -31 -31 -31 -31 -30 -29 -28 -26 -25 -24 -24 -24 -25 -26 -26 -26
-32 -32 -32 -32 -32 -32 -32 -32 -32 -32 -32 -32 -32 -33 -33 -33 -33 -33 -33 -33 -33 -33 -33 -33 -33 -33 -32 -32 -32 -32 -32 -32 -32 -32 -32 -32 -33 -33 -32 -32 -32 -32 -32 -32 -32 -32 -32 -31 -31 -31 -31 -31 -31 -30 -29 -28 -26 -26 -25 -25 -26 -27 -27
-33 -33 -33 -33 -33 -33 -33 -33 -33 -33 -33 -33 -33 -33 -34 -34 -34 -34 -34 -34 -34 -34 -34 -33 -33 -33 -33 -32 -32 -32 -32 -32 -32 -32 -33 -33 -33 -33 -33 -33 -33 -33 -33 -33 -33 -33 -32 -32 -32 -32 -31 -31 -31 -31 -30 -29 -28 -27 -27 -26 -26 -27 -28
-33 -33 -34 -34 -34 -34 -34 -34 -34 -35 -34 -34 -35 -35 -35 -35 -35 -35 -35 -35 -35 -35 -35 -34 -33 -33 -33 -33 -32 -32 -32 -32 -32 -32 -32 -33 -33 -33 -33 -34 -34 -34 -34 -34 -33 -33 -33 -33 -33 -32 -31 -30 -30 -29 -29 -28 -27 -27 -27 -27 -26 -27 -28
-34 -34 -34 -35 -35 -35 -35 -35 -35 -36 -36 -36 -36 -36 -36 -36 -36 -36 -36 -36 -36 -36 -35 -35 -34 -34 -33 -33 -32 -32 -32 -32 -32 -32 -32 -33 -33 -33 -34 -34 -35 -34 -34 -34 -33 -33 -33 -32 -32 -30 -29 -27 -27 -27 -26 -25 -25 -25 -26 -26 -26 -26 -27
-35 -35 -35 -35 -35 -35 -35 -36 -36 -36 -36 -37 -37 -37 -37 -37 -37 -37 -36 -35 -35 -36 -36 -35 -35 -35 -34 -34 -33 -33 -33 -32 -32 -32 -33 -34 -34 -34 -35 -35 -35 -34 -33 -32 -32 -31 -30 -30 -29 -28 -27 -26 -26 -26 -26 -26 -25 -25 -25 -26 -26 -26 -27
-35 -35 -35 -35 -35 -35 -36 -36 -36 -36 -36 -37 -37 -36 -36 -36 -36 -35 -34 -33 -34 -35 -35 -35 -35 -35 -34 -34 -34 -34 -34 -34 -34 -34 -34 -34 -35 -35 -35 -34 -34 -33 -32 -31 -30 -30 -29 -28 -28 -27 -27 -27 -27 -27 -27 -26 -26 -26 -26 -26 -26 -27 -27
-36 -36 -36 -36 -36 -36 -36 -36 -36 -36 -36 -36 -36 -36 -35 -35 -34 -34 -33 -33 -34 -35 -34 -34 -34 -34 -34 -34 -34 -34 -34 -34 -35 -35 -35 -35 -34 -34 -34 -33 -33 -32 -31 -30 -30 -29 -29 -29 -28 -28 -28 -28 -27 -27 -27 -27 -27 -27 -27 -27 -27 -27 -28
-36 -36 -36 -36 -36 -36 -36 -36 -36 -36 -36 -35 -35 -35 -35 -35 -34 -34 -33 -33 -34 -35 -35 -34 -34 -34 -34 -34 -34 -34 -34 -34 -34 -34 -34 -34 -34 -33 -33 -32 -32 -31 -31 -30 -30 -29 -29 -29 -29 -29 -29 -28 -28 -28 -28 -28 -28 -28 -28 -28 -28 -28 -28
-36 -36 -36 -36 -36 -36 -36 -36 -35 -35 -35 -35 -35 -35 -35 -35 -35 -34 -34 -34 -34 -35 -34 -34 -34 -34 -34 -34 -34 -34 -34 -34 -34 -34 -34 -33 -33 -33 -32 -32 -32 -32 -31 -31 -30 -30 -30 -30 -30 -30 -29 -29 -29 -29 -29 -29 -29 -29 -29 -29 -29 -29 -29
-36 -36 -36 -36 -36 -35 -35 -35 -35 -35 -35 -35 -35 -35 -35 -35 -35 -35 -35 -34 -34 -34 -34 -34 -34 -34 -34 -34 -34 -34 -34 -34 -34 -34 -34 -33 -33 -33 -32 -32 -32 -32 -32 -32 -31 -31 -31 -31 -30 -30 -30 -30 -30 -30 -29 -29 -29 -29 -29 -29 -29 -30 -30
-36 -36 -35 -35 -35 -35 -35 -35 -35 -35 -35 -35 -35 -35 -35 -35 -35 -35 -35 -35 -35 -35 -35 -34 -34 -34 -34 -34 -34 -34 -34 -34 -34 -34 -33 -33 -33 -33 -33 -33 -33 -33 -33 -33 -33 -33 -32 -32 -32 -31 -31 -31 -31 -30 -30 -30 -30 -30 -30 -30 -30 -30 -30
-35 -35 -35 -35 -35 -35 -35 -35 -35 -35 -35 -35 -35 -35 -35 -35 -35 -35 -35 -35 -35 -35 -35 -35 -35 -35 -35 -35 -35 -34 -34 -34 -34 -34 -33 -33 -33 -33 -33 -34 -33 -33 -33 -34 -34 -34 -34 -33 -33 -33 -32 -32 -32 -31 -31 -31 -31 -31 -31 -31 -30 -30 -30
-35 -35 -35 -35 -34 -34 -34 -34 -34 -34 -34 -34 -34 -34 -34 -34 -34 -35 -35 -35 -35 -35 -34 -34 -34 -34 -34 -34 -34 -34 -34 -34 -34 -34 -33 -33 -33 -33 -33 -34 -34 -34 -34 -34 -34 -34 -34 -34 -34 -34 -33 -33 -33 -32 -32 -32 -32 -31 -31 -31 -30 -29 -29
Wind_Speed
7 7 8 8 8 8 8 8 8 8 8 8 7 7 7 7 7 8 8 8 7 7 7 6 6 5 4 4 4 3 4 4 4 5 6 8 10 11 13 15 16 18 19 19 18 19 19 19 19 20 21 22 23 24 25 24 24 24 24 24 24 24 25
8 8 8 8 8 8 8 8 8 8 9 8 8 8 8 7 7 7 7 7 7 7 7 7 7 7 7 6 6 6 6 5 5 6 6 7 8 9 11 13 14 16 18 19 18 19 19 18 19 19 19 20 21 23 25 25 25 25 26 26 26 26 26
9 9 9 8 8 8 8 8 8 8 8 9 9 9 9 9 9 8 8 8 7 7 7 7 7 7 7 7 7 7 7 7 7 7 7 8 9 9 10 12 13 14 16 17 17 17 18 17 17 18 18 19 20 21 22 24 24 25 25 26 27 27 27
8 8 8 8 8 8 8 8 8 9 9 8 9 9 10 10 10 10 10 10 10 9 9 9 8 8 7 8 8 8 9 8 8 8 8 9 9 10 11 12 13 14 15 17 18 18 18 18 18 19 19 19 21 21 22 23 23 23 24 25 25 27 27
8 8 8 8 8 9 9 9 9 9 9 9 9 9 9 10 10 11 11 11 12 11 11 11 11 10 10 9 9 10 10 10 9 9 9 10 10 11 11 12 13 14 14 16 17 17 19 19 19 19 19 20 21 22 22 23 23 23 24 24 25 26 27
8 8 8 9 9 9 10 10 10 10 11 10 10 10 10 10 10 10 11 11 12 13 13 13 13 13 12 12 12 13 12 12 11 11 11 11 12 12 13 13 14 15 15 15 15 16 17 18 19 20 19 18 20 22 23 23 24 24 24 26 27 27 28
9 9 10 10 10 11 11 12 12 13 13 13 13 12 12 12 11 11 11 11 12 13 14 15 15 15 15 15 15 15 15 15 15 14 14 14 14 14 14 15 15 16 17 17 17 17 17 17 18 19 19 18 19 21 22 23 24 24 24 25 27 28 29
11 11 11 12 12 12 13 13 13 14 15 15 16 15 15 15 14 13 12 12 12 13 14 15 16 16 16 17 17 17 18 18 18 17 17 17 17 17 17 17 18 18 19 19 20 19 19 19 18 19 19 20 20 21 21 22 24 26 26 26 26 27 28
12 12 13 13 13 13 14 14 15 15 16 17 18 18 18 19 18 16 16 15 15 15 15 15 16 17 17 17 18 18 19 19 20 20 20 20 21 21 20 20 20 21 21 22 22 22 21 21 20 20 21 21 21 22 22 22 23 25 26 27 28 28 27
14 14 14 14 14 14 14 14 15 15 16 16 18 19 20 20 20 19 19 19 19 18 18 17 17 17 18 18 19 19 20 20 20 21 22 22 24 24 23 23 23 23 23 24 24 23 23 23 22 21 21 22 22 23 24 25 25 27 28 28 29 29 27
17 16 16 16 15 15 14 14 15 15 15 15 16 19 21 21 21 20 20 21 22 21 21 20 19 19 19 19 20 20 21 20 20 21 21 22 24 25 25 25 25 26 25 25 25 24 24 24 24 22 21 22 22 23 25 26 27 29 29 29 30 29 28
20 19 19 18 18 17 16 15 15 15 15 14 13 17 22 22 21 20 20 21 22 22 23 23 22 21 21 21 21 21 22 21 21 21 22 23 23 24 25 25 25 26 27 27 27 27 26 26 25 25 24 22 22 23 25 26 27 28 29 30 30 31 31
21 22 21 20 20 20 18 18 17 16 16 13 10 14 22 23 22 22 21 22 23 23 23 23 23 23 23 23 22 22 22 22 21 21 22 23 24 24 25 25 25 26 26 27 28 28 28 27 26 27 26 24 24 25 26 27 27 28 29 31 32 33 33
22 23 23 22 21 21 20 19 17 16 16 13 10 15 23 24 24 23 22 23 24 24 24 24 25 25 24 24 23 23 22 22 22 23 24 24 24 24 24 25 25 25 26 26 27 28 29 28 27 27 27 25 26 26 26 27 28 29 30 32 33 34 35
24 23 23 23 22 21 21 20 17 15 14 10 10 17 23 24 24 23 22 23 24 23 24 24 25 26 26 26 25 24 23 22 22 24 25 25 25 25 25 25 25 25 25 25 25 25 26 25 24 23 22 22 24 26 27 27 28 29 29 31 34 34 34
24 23 23 23 23 22 22 21 18 15 13 8 10 19 23 22 23 23 22 23 23 23 24 24 25 26 26 26 25 24 23 22 23 25 26 25 26 25 25 26 26 26 26 25 25 24 22 21 19 16 16 19 23 27 28 27 27 27 27 30 35 36 36
23 24 24 23 24 23 22 22 20 17 13 9 10 18 23 23 23 23 23 23 23 24 24 24 24 25 25 25 25 23 22 21 23 25 25 26 26 26 26 26 27 27 27 27 27 27 25 24 23 22 24 25 26 28 29 29 30 29 28 30 34 37 37
22 22 23 22 23 23 22 22 21 18 16 13 12 17 22 25 25 24 23 24 23 24 24 23 23 23 24 24 23 22 20 20 20 22 24 25 26 25 25 26 28 29 29 29 29 28 28 28 27 27 28 29 30 31 31 31 32 31 31 33 34 36 38
20 20 20 21 21 21 21 21 20 19 18 16 15 15 20 25 27 26 25 25 24 24 24 24 24 23 23 23 23 21 19 16 15 17 23 25 26 26 25 26 30 31 30 31 31 30 29 29 29 29 30 30 30 31 30 30 31 31 32 35 36 37 37
22 20 20 20 20 21 21 21 20 19 19 18 17 16 19 25 28 26 26 26 25 25 25 25 25 25 23 23 23 21 20 16 11 15 24 27 26 26 27 28 31 32 31 32 33 32 31 31 30 30 30 29 30 29 28 28 28 29 29 31 35 36 35
23 22 21 21 21 22 22 23 22 21 20 20 19 18 21 25 27 26 27 27 27 26 27 26 26 25 24 24 23 23 22 17 12 17 26 27 25 26 28 29 31 32 31 33 33 33 33 33 32 31 31 30 30 29 28 28 28 28 29 29 31 34 35
24 23 23 22 22 23 23 23 23 23 22 21 21 20 22 24 25 25 27 28 27 27 26 26 26 25 24 24 23 22 20 17 16 22 26 25 24 26 27 28 30 31 31 32 33 34 34 34 34 34 34 33 32 31 30 29 30 30 30 30 31 32 34
23 24 23 23 22 22 23 24 23 23 23 23 22 22 22 23 25 25 26 27 27 26 26 26 26 25 24 23 22 20 19 19 22 25 26 25 26 27 27 28 29 30 31 32 32 33 34 34 34 34 35 35 35 34 33 33 33 32 32 32 32 32 32
23 24 24 24 23 23 23 23 23 23 23 23 23 23 22 22 23 24 24 25 25 25 25 25 25 24 23 22 22 21 21 23 25 26 26 26 26 26 27 28 28 29 29 30 31 31 32 32 32 32 32 33 32 33 33 33 33 33 32 32 32 32 31
24 24 25 25 25 24 24 24 23 23 22 22 23 23 22 22 23 23 23 24 24 24 24 24 24 23 23 23 23 23 24 24 25 25 26 26 26 26 26 27 28 28 28 29 29 29 30 30 29 28 28 29 29 29 30 30 29 29 29 28 29 30 30
23 24 24 25 25 26 26 25 24 23 22 22 23 23 22 22 23 23 23 23 24 23 23 22 23 23 22 22 22 23 23 24 25 25 26 25 25 25 25 26 27 28 28 28 27 27 28 28 27 25 24 24 24 25 24 24 25 26 26 26 26 29 30
23 24 25 25 26 27 27 27 26 25 24 23 24 24 23 23 24 24 24 24 24 23 23 23 24 23 23 23 22 22 22 23 24 25 26 26 25 25 25 26 26 26 26 26 25 25 25 25 24 22 21 19 19 19 19 19 22 24 25 25 26 28 31
24 25 25 26 27 28 29 30 29 28 27 26 26 25 25 24 24 23 22 23 24 24 24 24 25 25 24 24 24 24 24 25 26 27 28 28 27 26 26 25 24 23 22 22 22 22 22 21 20 20 18 17 17 18 17 18 20 23 23 24 25 27 30
25 25 25 26 27 27 29 31 30 29 28 27 26 25 24 23 21 19 18 20 24 25 25 25 25 25 25 25 25 25 25 26 26 27 27 27 26 25 23 22 21 21 20 18 18 19 18 18 18 17 16 17 18 19 18 19 20 22 23 23 24 26 27
24 24 25 25 26 26 27 29 29 28 27 26 24 22 20 18 17 14 14 19 25 26 24 25 25 25 25 25 26 26 26 26 26 25 25 24 22 20 19 19 18 18 18 17 17 17 17 16 17 17 17 18 19 20 20 20 21 21 22 23 24 26 27
23 23 23 24 25 25 25 25 25 25 24 23 22 20 19 18 17 16 16 21 26 26 24 24 25 25 25 25 26 26 26 25 25 23 22 21 19 18 17 17 17 18 18 18 17 17 17 16 16 17 17 18 19 20 21 21 21 21 22 23 24 25 27
21 21 21 22 22 23 23 23 22 23 22 22 21 21 20 20 20 20 21 24 26 26 25 25 25 25 25 25 25 25 25 25 24 22 21 20 19 18 18 18 19 19 19 19 19 19 19 18 18 18 18 18 19 20 21 21 21 21 22 23 23 24 25
19 19 20 20 20 20 21 21 21 21 22 22 21 21 21 21 21 22 23 25 25 25 25 25 25 25 24 24 24 24 24 23 23 21 20 20 19 19 19 20 20 21 21 21 21 22 22 21 21 21 21 21 21 21 22 22 22 22 22 23 24 24 24
17 17 19 19 19 19 19 20 20 20 21 21 21 21 21 22 22 22 23 23 24 25 25 24 24 24 23 23 23 23 22 22 22 21 21 21 20 21 21 21 22 22 23 23 23 24 24 24 24 24 24 25 24 24 24 24 23 23 23 23 24 23 23
18 17 18 19 19 19 20 20 20 20 20 21 21 21 22 23 23 22 22 23 23 24 24 24 24 23 23 22 22 22 22 22 22 22 22 22 23 23 23 23 24 24 25 25 25 25 25 25 25 25 25 26 27 27 27 26 25 24 24 24 23 23 23
21 19 18 18 19 19 20 20 20 20 20 20 21 21 23 24 24 23 23 23 23 23 23 23 23 23 22 22 22 22 22 22 23 23 23 23 24 25 25 26 26 26 26 27 27 27 26 25 25 25 24 25 27 27 27 26 25 24 24 23 22 22 22
Wind_Direction
60 56 52 47 41 37 32 27 26 23 20 17 14 9 3 359 357 357 358 1 359 356 354 355 356 356 351 344 333 312 299 287 273 265 255 249 248 249 252 253 255 257 259 259 260 262 262 261 259 252 244 239 234 233 235 236 237 240 242 245 247 248 248
56 53 49 43 38 35 30 26 23 19 17 14 11 10 7 3 360 356 354 350 346 343 343 344 343 341 337 333 328 320 314 308 298 291 282 274 267 260 259 260 262 265 266 266 266 267 269 269 269 267 261 255 249 243 241 241 241 242 245 247 249 251 253
48 43 38 34 32 29 25 22 18 13 11 7 4 1 358 359 359 356 352 348 346 343 339 336 332 330 327 323 318 312 308 306 300 296 291 286 281 275 272 271 271 272 274 275 272 271 272 272 271 271 269 267 264 259 254 251 248 248 248 250 252 252 254
35 31 27 21 17 16 14 12 10 7 3 360 359 356 351 350 349 347 347 345 343 341 337 333 329 325 320 316 311 306 302 299 295 291 289 285 283 280 277 274 272 272 274 277 278 277 277 276 274 273 272 270 268 266 264 261 257 253 252 252 253 254 254
25 17 12 8 2 360 358 356 354 352 349 348 348 347 344 342 339 338 338 337 335 333 330 328 325 322 319 314 309 305 300 297 294 291 289 285 281 278 276 274 272 271 271 274 278 281 281 281 279 278 276 274 272 269 265 263 261 258 255 253 253 254 254
12 5 0 357 354 351 346 344 344 340 336 333 334 334 332 329 328 328 328 327 325 323 321 319 317 316 315 312 310 307 303 301 299 295 291 286 281 278 275 272 271 271 271 272 274 277 280 282 283 283 281 279 277 275 272 268 264 260 257 255 253 251 253
359 356 354 350 346 343 340 338 337 334 330 327 325 324 321 319 318 319 318 317 314 313 311 309 308 307 307 306 305 304 303 302 301 299 297 292 287 284 281 277 276 274 274 274 275 276 278 279 281 283 283 282 279 278 278 276 272 265 260 257 256 254 253
351 349 348 344 340 337 335 334 331 327 324 321 318 317 314 311 310 310 309 307 305 304 301 300 299 299 300 300 299 298 298 297 297 296 295 293 291 288 287 285 283 281 281 280 280 281 281 281 280 280 280 280 279 278 278 277 275 272 267 263 261 260 258
344 342 340 337 335 332 330 328 326 324 321 318 315 313 310 307 307 306 305 302 300 296 294 295 295 295 295 294 293 293 292 292 292 292 292 291 289 288 287 286 285 284 283 283 283 284 285 284 284 283 281 279 279 278 277 275 274 273 272 269 266 266 266
337 335 333 330 328 327 325 323 322 321 320 318 314 308 304 302 302 302 302 300 297 294 292 292 292 292 291 290 290 289 289 288 288 288 289 288 288 288 287 286 284 283 281 281 282 282 283 284 284 284 282 280 277 275 274 274 274 274 273 272 269 268 268
332 330 328 327 325 323 323 322 319 319 317 317 315 306 299 295 295 296 297 296 294 294 293 292 291 289 287 286 286 286 287 287 286 285 285 284 284 285 285 285 285 284 282 282 282 281 282 282 281 280 278 277 274 272 270 270 271 272 274 276 275 271 268
329 327 325 326 324 322 323 322 320 320 317 319 320 307 296 293 293 294 294 292 291 291 291 291 290 290 289 287 285 284 283 283 283 282 282 280 279 279 279 280 281 281 282 283 283 282 282 281 281 279 277 276 275 272 269 266 265 267 270 273 275 275 272
329 326 324 325 324 322 323 322 323 323 319 323 327 303 294 294 295 297 297 294 292 291 290 290 289 289 289 288 286 284 283 283 282 280 278 276 275 275 276 276 276 277 278 279 280 280 280 281 283 283 281 280 278 275 272 269 265 264 266 269 271 273 274
327 325 323 323 323 322 320 320 323 322 320 328 325 295 291 295 297 298 298 296 295 295 295 295 294 292 290 288 287 286 285 285 284 280 277 274 274 274 274 275 274 274 273 273 274 275 277 279 280 282 285 286 284 279 277 275 273 270 269 269 269 271 273
325 323 321 319 319 319 316 316 320 319 317 328 314 291 291 296 298 298 297 294 294 295 295 295 295 294 293 293 293 293 293 293 289 283 280 279 278 276 274 273 272 272 271 271 272 273 276 280 283 286 291 290 283 277 274 275 276 276 275 273 272 271 272
321 319 318 317 315 315 313 312 316 316 313 316 303 292 292 294 297 298 297 295 295 294 293 292 292 292 292 293 294 296 298 299 295 290 287 285 282 279 276 274 271 270 269 269 269 268 269 272 273 271 267 264 266 267 268 269 270 273 276 277 276 274 273
319 317 316 315 314 313 313 311 312 312 307 302 296 295 295 294 295 296 297 299 299 297 296 295 294 294 293 293 295 295 296 296 295 293 292 288 284 281 279 277 273 271 270 269 268 267 265 263 260 255 250 249 254 261 266 268 269 271 273 274 276 276 276
316 314 313 313 311 311 310 309 309 308 305 299 293 296 299 297 295 296 299 301 301 300 300 300 299 297 297 297 297 295 296 296 296 294 291 288 285 283 282 281 278 275 273 271 270 269 267 266 263 260 257 254 255 260 265 269 271 273 273 273 274 276 277
315 313 311 310 309 308 307 306 305 304 303 299 293 295 298 296 295 299 301 301 301 301 302 302 301 300 300 300 299 298 298 295 296 297 292 287 286 286 286 284 281 278 277 276 275 273 271 270 268 266 264 262 261 263 266 269 271 272 273 273 273 275 277
315 314 312 310 309 308 306 305 304 302 301 299 295 292 290 290 294 300 301 300 300 301 301 301 301 301 301 301 300 300 299 295 295 292 285 282 284 287 286 284 281 282 283 282 280 279 278 276 274 272 271 270 269 269 268 268 269 269 271 272 273 274 274
311 310 310 308 307 307 305 304 303 302 301 299 297 293 289 290 295 300 301 300 300 301 300 301 301 300 300 300 298 298 299 300 292 278 277 280 284 285 284 283 284 284 282 281 280 280 279 278 278 276 276 275 275 275 273 271 268 267 267 270 273 276 275
304 303 303 302 302 302 301 300 300 301 301 300 299 296 293 293 295 298 299 300 300 301 301 302 302 301 301 300 299 298 300 296 283 278 281 286 286 283 283 284 284 283 282 281 281 280 279 279 279 279 278 277 277 276 275 274 271 269 268 269 272 276 277
300 299 298 297 296 296 296 296 296 298 300 300 299 298 296 296 296 297 298 299 300 301 301 301 301 302 301 301 300 299 296 290 285 287 290 290 287 286 287 285 284 284 285 284 283 282 282 281 281 280 280 279 279 278 277 275 274 274 274 273 273 274 274
299 299 298 297 296 295 294 294 296 297 299 300 300 299 298 297 297 297 297 298 298 299 299 298 298 298 298 298 298 296 293 291 291 293 294 293 293 294 293 291 290 289 288 286 285 285 284 283 282 282 282 281 281 280 279 278 278 279 279 278 277 275 273
300 300 300 300 299 298 296 296 297 298 300 300 300 300 300 299 298 297 297 296 295 295 295 295 294 294 294 295 294 293 292 291 293 294 295 296 298 298 297 296 296 294 291 290 288 287 286 286 286 286 284 282 280 279 279 280 280 280 279 279 278 275 272
301 301 301 301 301 301 299 298 298 298 298 299 298 299 300 299 297 295 294 293 292 292 292 291 289 289 290 291 291 290 290 291 292 293 294 297 299 299 299 299 298 297 295 293 291 290 288 288 289 289 287 284 280 277 277 277 277 276 275 275 274 274 272
304 304 305 305 304 303 303 303 302 302 302 301 300 301 300 297 295 294 294 292 291 290 288 286 285 286 288 289 289 289 289 290 291 292 294 297 298 299 299 299 298 297 296 295 294 292 290 290 290 289 286 282 277 273 272 271 272 273 274 274 275 274 273
306 306 307 306 305 305 305 305 306 307 308 307 306 305 302 300 298 298 299 298 293 290 288 287 288 290 291 292 292 291 290 290 290 292 294 295 297 297 297 297 296 293 292 292 291 289 288 288 288 285 281 273 266 264 264 266 269 273 275 277 279 278 276
305 305 305 304 303 304 303 303 305 308 309 309 309 307 305 304 304 305 307 300 292 290 291 292 293 294 295 295 295 295 294 294 293 293 294 295 296 297 296 294 291 288 286 284 282 282 282 281 279 275 270 264 262 262 265 268 271 275 277 279 281 281 280
300 300 300 299 299 298 298 300 304 306 307 307 307 305 303 301 299 300 299 290 286 289 292 293 293 294 295 296 297 298 299 300 299 298 298 298 298 297 294 289 285 282 280 279 277 276 276 275 273 270 267 265 266 268 269 271 273 277 280 282 284 284 283
297 297 297 297 297 297 298 300 302 303 304 304 302 299 296 293 290 286 282 281 285 291 294 294 293 294 295 296 297 298 300 302 302 303 303 301 299 295 289 283 279 276 275 275 273 271 270 270 272 272 271 271 272 274 274 275 277 279 282 285 287 287 287
299 299 298 298 298 299 300 300 301 301 301 300 299 297 296 294 290 285 281 283 288 293 295 295 295 295 296 296 297 298 300 300 301 302 302 300 296 292 286 281 279 277 276 276 276 275 273 272 273 275 275 275 277 278 280 280 281 283 285 288 288 289 289
301 300 300 299 299 299 299 299 299 299 299 299 298 298 297 294 291 288 287 290 292 293 294 296 296 296 297 298 298 298 298 298 297 297 296 294 292 290 287 284 283 282 281 282 282 281 281 280 280 280 280 279 279 281 282 283 284 286 288 290 291 291 291
302 302 302 301 302 301 300 299 298 298 298 298 299 298 296 293 292 293 294 294 294 294 296 297 297 297 298 297 297 297 296 295 293 291 289 288 287 287 286 286 285 286 286 286 285 284 284 284 284 283 284 283 282 281 282 283 285 287 289 290 291 292 290
307 307 305 304 305 304 301 300 300 299 299 299 299 298 295 294 295 296 295 293 292 293 294 295 295 296 296 296 296 296 294 293 292 290 287 286 285 285 285 285 286 287 287 288 288 288 288 287 286 285 285 284 282 282 282 282 284 286 287 288 289 289 288
309 309 308 307 306 304 302 301 301 300 299 298 297 295 293 294 296 296 294 293 292 291 291 293 294 295 296 295 295 294 293 292 291 290 289 288 287 287 287 287 287 288 289 289 291 291 291 291 289 287 286 285 283 281 281 281 283 284 283 283 283 283 283
Height
1469 1469 1469 1469 1469 1470 1470 1470 1470 1470 1470 1470 1470 1470 1470 1470 1470 1470 1470 1470 1470 1470 1470 1470 1470 1470 1470 1470 1470 1470 1470 1470 1471 1471 1472 1472 1473 1474 1474 1475 1475 1475 1475 1476 1477 1478 1479 1480 1481 1481 1482 1483 1483 1485 1486 1486 1487 1487 1488 1489 1490 1491 1492
1469 1469 1469 1470 1470 1470 1470 1470 1470 1470 1470 1470 1470 1470 1470 1470 1470 1471 1471 1471 1471 1470 1470 1470 1470 1470 1470 1470 1470 1470 1470 1470 1470 1471 1471 1471 1471 1472 1473 1473 1474 1474 1474 1475 1475 1476 1477 1478 1478 1479 1479 1480 1481 1482 1483 1484 1484 1485 1485 1486 1487 1488 1489
1470 1470 1470 1470 1470 1470 1470 1470 1470 1470 1470 1470 1470 1470 1470 1470 1470 1470 1470 1471 1471 1470 1470 1470 1470 1470 1470 1470 1470 1470 1470 1470 1470 1470 1470 1470 1470 1471 1472 1472 1473 1473 1473 1473 1474 1475 1475 1476 1476 1476 1477 1478 1478 1479 1480 1481 1482 1482 1482 1483 1484 1485 1486
1470 1470 1470 1470 1470 1470 1470 1470 1470 1470 1470 1470 1470 1470 1470 1470 1470 1470 1470 1470 1470 1470 1470 1470 1470 1470 1470 1470 1470 1470 1470 1469 1469 1469 1469 1470 1470 1470 1471 1471 1472 1472 1472 1472 1472 1473 1473 1474 1474 1474 1475 1476 1476 1477 1477 1478 1478 1479 1479 1480 1481 1481 1482
1470 1470 1470 1470 1470 1470 1470 1469 1470 1470 1470 1470 1470 1470 1470 1470 1470 1470 1470 1470 1469 1469 1469 1469 1469 1469 1469 1469 1469 1469 1469 1469 1469 1469 1469 1469 1469 1470 1470 1470 1471 1471 1471 1471 1470 1471 1471 1471 1472 1472 1473 1473 1473 1473 1474 1474 1475 1475 1476 1477 1477 1478 1479
1470 1470 1470 1470 1469 1469 1469 1469 1469 1469 1469 1469 1470 1470 1470 1470 1470 1470 1469 1469 1469 1469 1468 1468 1468 1468 1468 1468 1468 1468 1468 1468 1468 1468 1468 1468 1469 1469 1469 1469 1469 1469 1469 1469 1468 1468 1468 1469 1469 1469 1470 1470 1470 1470 1470 1471 1471 1472 1473 1473 1473 1474 1474
1470 1470 1469 1469 1469 1469 1468 1468 1468 1468 1468 1468 1468 1469 1469 1469 1469 1469 1469 1469 1469 1468 1468 1467 1467 1467 1467 1467 1467 1466 1466 1466 1466 1467 1467 1467 1467 1467 1468 1468 1468 1467 1467 1466 1466 1466 1466 1466 1467 1467 1467 1467 1467 1467 1467 1467 1467 1468 1469 1469 1469 1470 1471
1470 1469 1469 1469 1468 1468 1467 1467 1467 1467 1466 1466 1466 1467 1467 1467 1467 1468 1468 1468 1468 1467 1467 1466 1466 1466 1466 1466 1465 1465 1465 1465 1465 1465 1465 1465 1465 1465 1465 1465 1465 1465 1464 1464 1463 1463 1463 1463 1464 1464 1464 1464 1464 1464 1464 1464 1463 1463 1464 1465 1465 1466 1467
1469 1469 1469 1468 1468 1467 1467 1466 1466 1466 1465 1465 1465 1465 1464 1464 1465 1466 1466 1466 1466 1465 1465 1465 1465 1464 1464 1464 1464 1464 1463 1463 1463 1463 1463 1463 1463 1463 1463 1463 1462 1462 1461 1461 1460 1460 1460 1460 1460 1461 1461 1461 1461 1461 1461 1461 1461 1460 1460 1461 1462 1462 1463
1469 1469 1469 1468 1467 1467 1466 1466 1465 1465 1464 1464 1463 1463 1462 1462 1462 1463 1463 1463 1463 1462 1463 1463 1463 1462 1462 1462 1462 1462 1462 1462 1462 1461 1461 1461 1460 1460 1460 1460 1459 1459 1459 1458 1458 1458 1457 1457 1458 1458 1458 1458 1459 1459 1458 1458 1458 1457 1456 1457 1457 1458 1459
1468 1468 1467 1467 1466 1466 1465 1465 1464 1464 1463 1463 1462 1460 1460 1460 1460 1461 1461 1460 1460 1460 1460 1460 1460 1460 1460 1460 1460 1459 1459 1459 1459 1459 1459 1458 1458 1457 1457 1457 1456 1456 1456 1456 1456 1456 1456 1456 1456 1456 1457 1456 1457 1457 1457 1456 1456 1454 1454 1454 1454 1454 1455
1466 1466 1465 1465 1464 1464 1464 1463 1463 1463 1462 1462 1461 1458 1456 1456 1458 1458 1459 1458 1458 1457 1457 1457 1457 1457 1457 1457 1457 1457 1457 1457 1457 1456 1456 1456 1455 1455 1454 1454 1454 1453 1453 1453 1453 1453 1453 1453 1453 1453 1454 1454 1454 1454 1454 1453 1453 1453 1452 1452 1451 1451 1452
1464 1463 1463 1463 1462 1461 1461 1461 1461 1461 1460 1461 1460 1456 1452 1453 1454 1455 1456 1455 1455 1455 1454 1454 1454 1454 1454 1454 1454 1454 1453 1454 1454 1453 1453 1452 1452 1452 1452 1452 1452 1452 1451 1451 1451 1450 1450 1451 1451 1450 1450 1451 1451 1450 1450 1449 1450 1450 1450 1449 1449 1448 1448
1462 1461 1460 1460 1460 1459 1458 1458 1459 1459 1458 1459 1458 1454 1450 1450 1451 1452 1452 1451 1451 1451 1451 1451 1450 1450 1450 1450 1450 1450 1450 1450 1450 1450 1449 1449 1449 1449 1449 1449 1449 1449 1449 1449 1448 1447 1447 1448 1448 1448 1447 1448 1447 1446 1446 1445 1446 1447 1447 1447 1446 1446 1446
1460 1459 1458 1457 1457 1456 1456 1456 1457 1457 1457 1457 1455 1451 1449 1448 1448 1449 1449 1449 1449 1449 1448 1448 1447 1446 1446 1446 1446 1447 1447 1447 1447 1446 1445 1446 1446 1446 1446 1446 1446 1446 1445 1445 1445 1445 1445 1445 1446 1446 1446 1445 1444 1442 1442 1442 1442 1442 1443 1442 1442 1442 1442
1458 1457 1456 1455 1454 1454 1453 1453 1454 1455 1455 1455 1453 1449 1447 1446 1445 1445 1445 1445 1446 1446 1446 1445 1445 1444 1443 1443 1444 1444 1444 1444 1443 1441 1441 1442 1442 1442 1442 1442 1442 1442 1442 1442 1441 1442 1442 1442 1442 1443 1443 1442 1440 1438 1439 1439 1439 1439 1439 1438 1437 1436 1437
1457 1455 1454 1453 1451 1451 1451 1450 1451 1452 1452 1452 1451 1446 1444 1444 1443 1442 1442 1442 1442 1442 1442 1442 1442 1441 1441 1441 1441 1442 1442 1441 1440 1438 1438 1437 1437 1437 1437 1437 1437 1438 1438 1438 1437 1438 1438 1438 1438 1438 1438 1438 1437 1436 1435 1435 1435 1436 1436 1435 1433 1431 1432
1455 1454 1452 1450 1449 1448 1448 1448 1448 1448 1449 1449 1448 1445 1442 1440 1439 1440 1440 1440 1439 1439 1438 1439 1439 1438 1438 1438 1438 1438 1439 1439 1438 1436 1434 1433 1432 1433 1433 1433 1433 1433 1434 1433 1433 1434 1434 1434 1434 1434 1434 1435 1434 1434 1433 1432 1432 1432 1432 1431 1430 1428 1428
1453 1451 1450 1448 1447 1446 1446 1446 1445 1445 1446 1446 1446 1444 1441 1437 1436 1437 1437 1437 1436 1436 1435 1435 1435 1435 1435 1435 1434 1435 1436 1437 1436 1434 1431 1429 1429 1429 1430 1429 1428 1428 1428 1429 1429 1429 1429 1430 1430 1430 1430 1430 1430 1431 1431 1430 1429 1429 1428 1427 1426 1426 1425
1449 1448 1447 1446 1445 1444 1443 1443 1443 1443 1443 1443 1443 1443 1440 1435 1434 1435 1434 1434 1433 1433 1432 1432 1431 1431 1432 1431 1431 1431 1432 1434 1435 1432 1428 1426 1427 1427 1427 1425 1424 1424 1424 1424 1424 1424 1424 1425 1425 1425 1425 1425 1426 1426 1427 1427 1427 1426 1425 1424 1422 1422 1422
1446 1445 1445 1444 1443 1442 1441 1440 1439 1439 1440 1440 1440 1440 1438 1435 1433 1433 1431 1430 1430 1430 1429 1428 1428 1428 1428 1428 1428 1428 1428 1430 1431 1428 1425 1424 1425 1425 1423 1422 1421 1421 1421 1420 1419 1419 1419 1420 1420 1420 1420 1421 1421 1422 1422 1423 1423 1422 1422 1421 1419 1418 1418
1444 1443 1443 1442 1441 1440 1439 1438 1437 1437 1437 1437 1436 1436 1435 1433 1432 1431 1429 1427 1427 1427 1426 1425 1424 1424 1425 1424 1424 1425 1425 1426 1426 1424 1422 1422 1422 1421 1420 1419 1417 1416 1416 1416 1415 1415 1415 1415 1416 1416 1416 1416 1416 1417 1418 1417 1418 1418 1418 1417 1417 1415 1413
1442 1441 1440 1440 1439 1438 1437 1436 1435 1435 1434 1434 1433 1433 1432 1431 1429 1428 1427 1425 1424 1423 1423 1422 1421 1421 1421 1421 1421 1421 1422 1421 1420 1419 1419 1419 1418 1417 1416 1415 1414 1413 1412 1411 1411 1411 1411 1411 1412 1411 1411 1412 1412 1412 1412 1412 1412 1413 1413 1413 1412 1412 1410
1439 1438 1437 1436 1436 1436 1435 1433 1433 1432 1432 1431 1430 1429 1429 1428 1427 1426 1424 1423 1421 1421 1420 1419 1418 1418 1418 1417 1417 1418 1417 1417 1416 1415 1415 1414 1414 1413 1412 1411 1410 1409 1408 1407 1407 1407 1406 1407 1407 1407 1407 1407 1407 1407 1407 1407 1407 1407 1407 1407 1407 1407 1407
1436 1435 1434 1433 1432 1432 1431 1431 1430 1430 1429 1428 1427 1426 1426 1425 1424 1423 1421 1420 1419 1418 1417 1416 1415 1415 1415 1415 1414 1414 1413 1413 1412 1412 1411 1411 1410 1409 1408 1407 1406 1405 1404 1403 1403 1403 1402 1402 1403 1403 1403 1403 1403 1402 1402 1403 1403 1402 1403 1403 1402 1402 1402
1433 1432 1431 1430 1428 1428 1427 1427 1427 1427 1426 1425 1424 1423 1422 1421 1420 1419 1418 1417 1416 1415 1415 1413 1412 1412 1412 1412 1411 1411 1410 1409 1409 1409 1408 1408 1407 1406 1405 1404 1402 1401 1400 1400 1399 1399 1398 1398 1398 1399 1398 1398 1398 1398 1399 1399 1399 1398 1398 1398 1398 1397 1396
1430 1429 1427 1426 1425 1424 1423 1423 1423 1423 1423 1422 1421 1420 1419 1418 1417 1416 1415 1414 1413 1412 1411 1410 1409 1409 1409 1409 1408 1408 1407 1406 1406 1405 1405 1404 1404 1403 1402 1401 1399 1398 1397 1396 1396 1395 1395 1395 1395 1395 1395 1395 1395 1395 1396 1396 1395 1394 1394 1394 1394 1392 1391
1427 1426 1424 1423 1422 1420 1419 1418 1418 1418 1418 1418 1417 1416 1415 1414 1413 1412 1411 1410 1409 1408 1407 1407 1406 1406 1406 1405 1405 1404 1404 1404 1403 1402 1401 1401 1400 1400 1399 1398 1397 1396 1395 1394 1393 1393 1392 1392 1392 1392 1392 1392 1392 1392 1392 1392 1392 1391 1391 1391 1390 1389 1388
1424 1423 1422 1420 1419 1418 1416 1415 1415 1415 1414 1414 1413 1412 1411 1410 1410 1409 1409 1407 1405 1404 1404 1404 1403 1403 1403 1402 1401 1401 1400 1400 1399 1398 1398 1397 1397 1396 1395 1395 1394 1393 1392 1392 1391 1390 1390 1389 1389 1389 1389 1389 1388 1389 1389 1389 1389 1388 1388 1387 1387 1386 1385
1422 1421 1420 1418 1417 1416 1414 1412 1412 1412 1411 1410 1410 1409 1408 1408 1407 1407 1407 1405 1402 1402 1402 1401 1401 1400 1400 1399 1398 1397 1397 1396 1395 1395 1394 1394 1393 1393 1392 1392 1391 1390 1389 1389 1389 1388 1387 1387 1387 1386 1386 1386 1386 1386 1386 1386 1386 1385 1385 1384 1384 1383 1382
1420 1419 1417 1416 1414 1413 1412 1411 1410 1409 1409 1408 1407 1406 1406 1405 1405 1404 1404 1401 1399 1399 1400 1399 1398 1397 1397 1396 1395 1394 1394 1393 1392 1391 1391 1390 1390 1390 1389 1388 1388 1387 1387 1386 1386 1385 1385 1385 1384 1384 1384 1383 1383 1383 1383 1383 1383 1382 1382 1381 1381 1380 1379
1417 1416 1415 1413 1412 1411 1410 1409 1408 1407 1406 1405 1405 1404 1403 1403 1402 1401 1400 1398 1397 1397 1397 1396 1395 1394 1394 1393 1392 1392 1391 1390 1389 1389 1388 1387 1387 1387 1386 1386 1385 1385 1384 1384 1383 1383 1382 1382 1382 1381 1381 1381 1380 1380 1379 1379 1379 1379 1379 1378 1378 1377 1376
1415 1413 1412 1411 1410 1408 1407 1406 1405 1404 1403 1403 1402 1401 1401 1400 1399 1398 1397 1396 1395 1394 1394 1393 1392 1391 1391 1390 1389 1389 1388 1387 1386 1386 1385 1385 1384 1384 1384 1383 1383 1382 1382 1381 1381 1380 1380 1379 1379 1378 1378 1377 1377 1377 1376 1376 1376 1376 1376 1375 1374 1374 1373
1413 1411 1409 1408 1407 1406 1405 1404 1403 1402 1401 1400 1399 1399 1398 1396 1396 1395 1394 1393 1392 1391 1390 1390 1389 1388 1388 1387 1386 1386 1385 1384 1384 1383 1383 1382 1382 1381 1381 1380 1380 1379 1379 1378 1378 1377 1377 1377 1376 1376 1375 1374 1374 1374 1373 1373 1373 1373 1372 1372 1371 1370 1370
1409 1409 1407 1406 1405 1403 1402 1401 1401 1400 1399 1398 1397 1396 1395 1393 1393 1392 1392 1391 1390 1389 1388 1387 1386 1385 1385 1384 1383 1383 1382 1381 1381 1380 1380 1379 1379 1378 1378 1377 1377 1376 1376 1375 1375 1374 1374 1373 1373 1372 1372 1371 1370 1370 1370 1370 1370 1370 1369 1368 1368 1367 1366
1405 1405 1405 1404 1402 1401 1400 1399 1398 1397 1396 1395 1394 1393 1392 1390 1390 1389 1388 1387 1387 1386 1385 1384 1383 1383 1382 1381 1380 1380 1379 1378 1378 1377 1377 1376 1375 1375 1374 1374 1373 1373 1372 1371 1371 1371 1370 1370 1369 1369 1368 1367 1366 1366 1366 1366 1366 1366 1366 1365 1365 1364 1363